Time,TemperatureF,DewpointF,PressureIn,WindDirection,WindDirectionDegrees,WindSpeedMPH,WindSpeedGustMPH,Humidity,HourlyPrecipIn,Conditions,Clouds,dailyrainin,SoftwareType,DateUTC
2013-06-03 00:02:00,78.2,73.0,29.87,West,271,7.0,12.0,85,0.00,,,0.18,weatherlink.com 1.10,2013-06-03 05:02:00,
2013-06-03 00:17:00,78.2,73.0,29.87,WSW,237,8.0,11.0,84,0.00,,,0.18,weatherlink.com 1.10,2013-06-03 05:17:00,
2013-06-03 00:32:00,78.0,73.0,29.88,SW,232,5.0,8.0,83,0.00,,,0.18,weatherlink.com 1.10,2013-06-03 05:32:00,
2013-06-03 00:47:00,78.2,72.0,29.89,WSW,252,5.0,9.0,81,0.00,,,0.18,weatherlink.com 1.10,2013-06-03 05:47:00,
2013-06-03 01:02:00,78.5,70.0,29.89,SW,225,7.0,8.0,76,0.00,,,0.18,weatherlink.com 1.10,2013-06-03 06:02:00,
2013-06-03 01:17:00,78.5,70.0,29.89,SW,221,6.0,8.0,76,0.00,,,0.18,weatherlink.com 1.10,2013-06-03 06:17:00,
2013-06-03 01:32:00,78.3,71.0,29.89,SW,232,3.0,7.0,77,0.00,,,0.18,weatherlink.com 1.10,2013-06-03 06:32:00,
2013-06-03 01:47:00,78.0,70.0,29.89,WSW,242,5.0,8.0,77,0.00,,,0.00,weatherlink.com 1.10,2013-06-03 06:47:00,
2013-06-03 02:02:00,77.3,70.0,29.89,SW,224,4.0,5.0,79,0.00,,,0.00,weatherlink.com 1.10,2013-06-03 07:02:00,
2013-06-03 02:17:00,76.9,70.0,29.89,SW,225,3.0,4.0,80,0.00,,,0.00,weatherlink.com 1.10,2013-06-03 07:17:00,
2013-06-03 02:32:00,77.0,70.0,29.88,WSW,244,2.0,5.0,78,0.00,,,0.00,weatherlink.com 1.10,2013-06-03 07:32:00,
2013-06-03 02:47:00,77.1,70.0,29.88,WSW,244,2.0,5.0,78,0.00,,,0.00,weatherlink.com 1.10,2013-06-03 07:47:00,
2013-06-03 03:02:00,76.7,70.0,29.88,SW,222,0.0,4.0,79,0.00,,,0.00,weatherlink.com 1.10,2013-06-03 08:02:00,
2013-06-03 03:17:00,76.4,69.0,29.89,SW,222,0.0,1.0,79,0.00,,,0.00,weatherlink.com 1.10,2013-06-03 08:17:00,
2013-06-03 03:32:00,76.0,69.0,29.88,SW,222,0.0,0.0,80,0.00,,,0.00,weatherlink.com 1.10,2013-06-03 08:32:00,
2013-06-03 03:47:00,75.9,70.0,29.88,SW,222,0.0,1.0,82,0.00,,,0.00,weatherlink.com 1.10,2013-06-03 08:47:00,
2013-06-03 04:02:00,75.8,70.0,29.88,SW,222,1.0,2.0,83,0.00,,,0.00,weatherlink.com 1.10,2013-06-03 09:02:00,
2013-06-03 04:17:00,75.7,71.0,29.88,SW,222,0.0,1.0,84,0.00,,,0.00,weatherlink.com 1.10,2013-06-03 09:17:00,
2013-06-03 04:32:00,75.3,70.0,29.87,SW,222,1.0,2.0,84,0.00,,,0.00,weatherlink.com 1.10,2013-06-03 09:32:00,
2013-06-03 04:47:00,75.3,70.0,29.88,SW,222,1.0,2.0,84,0.00,,,0.00,weatherlink.com 1.10,2013-06-03 09:47:00,
2013-06-03 05:03:00,75.3,71.0,29.88,SW,222,1.0,2.0,85,0.00,,,0.00,weatherlink.com 1.10,2013-06-03 10:03:00,
2013-06-03 05:17:00,75.2,71.0,29.89,SW,222,1.0,2.0,85,0.00,,,0.00,weatherlink.com 1.10,2013-06-03 10:17:00,
2013-06-03 05:32:00,75.1,71.0,29.89,SW,222,1.0,2.0,86,0.00,,,0.00,weatherlink.com 1.10,2013-06-03 10:32:00,
2013-06-03 05:47:00,75.0,71.0,29.89,SW,222,2.0,4.0,86,0.00,,,0.00,weatherlink.com 1.10,2013-06-03 10:47:00,
2013-06-03 06:03:00,75.0,71.0,29.89,SW,227,1.0,2.0,87,0.00,,,0.00,weatherlink.com 1.10,2013-06-03 11:03:00,
2013-06-03 06:18:00,75.2,71.0,29.90,SW,221,1.0,4.0,86,0.00,,,0.00,weatherlink.com 1.10,2013-06-03 11:18:00,
2013-06-03 06:33:00,74.9,71.0,29.90,SW,221,3.0,4.0,86,0.00,,,0.00,weatherlink.com 1.10,2013-06-03 11:33:00,
2013-06-03 06:48:00,75.2,71.0,29.90,SW,223,1.0,5.0,86,0.00,,,0.00,weatherlink.com 1.10,2013-06-03 11:48:00,
2013-06-03 07:03:00,75.9,72.0,29.90,SW,215,1.0,3.0,86,0.00,,,0.00,weatherlink.com 1.10,2013-06-03 12:03:00,
2013-06-03 07:18:00,77.3,73.0,29.90,SW,227,2.0,6.0,85,0.00,,,0.00,weatherlink.com 1.10,2013-06-03 12:18:00,
2013-06-03 07:33:00,78.4,73.0,29.91,WSW,237,4.0,6.0,83,0.00,,,0.00,weatherlink.com 1.10,2013-06-03 12:33:00,
2013-06-03 07:48:00,79.1,73.0,29.91,SW,231,5.0,8.0,82,0.00,,,0.00,weatherlink.com 1.10,2013-06-03 12:48:00,
2013-06-03 08:03:00,79.0,73.0,29.91,SW,227,8.0,10.0,81,0.00,,,0.00,weatherlink.com 1.10,2013-06-03 13:03:00,
2013-06-03 08:18:00,80.1,73.0,29.91,SW,227,7.0,10.0,79,0.00,,,0.00,weatherlink.com 1.10,2013-06-03 13:18:00,
2013-06-03 08:33:00,80.5,72.0,29.92,SW,215,6.0,10.0,75,0.00,,,0.00,weatherlink.com 1.10,2013-06-03 13:33:00,
2013-06-03 08:48:00,81.1,73.0,29.92,SW,218,8.0,10.0,77,0.00,,,0.00,weatherlink.com 1.10,2013-06-03 13:48:00,
2013-06-03 09:03:00,81.2,73.0,29.91,SW,220,6.0,11.0,75,0.00,,,0.00,weatherlink.com 1.10,2013-06-03 14:03:00,
2013-06-03 09:18:00,81.8,73.0,29.91,WSW,242,7.0,12.0,74,0.00,,,0.00,weatherlink.com 1.10,2013-06-03 14:18:00,
2013-06-03 09:33:00,82.2,73.0,29.92,WSW,246,7.0,13.0,74,0.00,,,0.00,weatherlink.com 1.10,2013-06-03 14:33:00,
2013-06-03 09:48:00,82.4,72.0,29.93,WSW,248,4.0,10.0,71,0.00,,,0.00,weatherlink.com 1.10,2013-06-03 14:48:00,
2013-06-03 10:03:00,83.6,73.0,29.93,SSW,210,8.0,11.0,71,0.00,,,0.00,weatherlink.com 1.10,2013-06-03 15:03:00,
2013-06-03 10:18:00,82.1,72.0,29.92,SW,227,9.0,12.0,72,0.00,,,0.00,weatherlink.com 1.10,2013-06-03 15:18:00,
2013-06-03 10:33:00,82.6,73.0,29.92,WSW,253,8.0,11.0,72,0.00,,,0.00,weatherlink.com 1.10,2013-06-03 15:33:00,
2013-06-03 10:48:00,83.0,72.0,29.93,SW,236,7.0,12.0,70,0.00,,,0.00,weatherlink.com 1.10,2013-06-03 15:48:00,
2013-06-03 11:03:00,83.2,73.0,29.92,SW,234,8.0,14.0,72,0.00,,,0.00,weatherlink.com 1.10,2013-06-03 16:03:00,
2013-06-03 11:18:00,83.4,72.0,29.92,WSW,258,9.0,13.0,69,0.00,,,0.00,weatherlink.com 1.10,2013-06-03 16:18:00,
2013-06-03 11:33:00,82.6,74.0,29.91,SW,219,7.0,12.0,74,0.00,,,0.00,weatherlink.com 1.10,2013-06-03 16:33:00,
2013-06-03 11:48:00,82.7,73.0,29.90,SW,229,8.0,12.0,73,0.00,,,0.00,weatherlink.com 1.10,2013-06-03 16:48:00,
2013-06-03 12:03:00,83.6,73.0,29.90,SW,228,8.0,11.0,71,0.00,,,0.00,weatherlink.com 1.10,2013-06-03 17:03:00,
2013-06-03 12:18:00,84.7,73.0,29.90,WSW,248,6.0,13.0,69,0.00,,,0.00,weatherlink.com 1.10,2013-06-03 17:18:00,
2013-06-03 12:33:00,83.7,73.0,29.90,WSW,241,7.0,12.0,70,0.00,,,0.00,weatherlink.com 1.10,2013-06-03 17:33:00,
2013-06-03 12:48:00,84.6,73.0,29.89,SW,232,9.0,14.0,69,0.00,,,0.00,weatherlink.com 1.10,2013-06-03 17:48:00,
2013-06-03 13:03:00,84.4,73.0,29.89,WSW,237,6.0,12.0,69,0.00,,,0.00,weatherlink.com 1.10,2013-06-03 18:03:00,
2013-06-03 13:18:00,84.9,73.0,29.88,WSW,239,8.0,14.0,68,0.00,,,0.00,weatherlink.com 1.10,2013-06-03 18:18:00,
2013-06-03 13:33:00,85.4,74.0,29.88,SW,235,12.0,14.0,68,0.00,,,0.00,weatherlink.com 1.10,2013-06-03 18:33:00,
2013-06-03 13:48:00,86.0,73.0,29.88,SW,230,7.0,14.0,66,0.00,,,0.00,weatherlink.com 1.10,2013-06-03 18:48:00,
2013-06-03 14:03:00,85.1,74.0,29.87,WSW,243,7.0,13.0,69,0.00,,,0.00,weatherlink.com 1.10,2013-06-03 19:03:00,
2013-06-03 14:18:00,84.8,73.0,29.87,WSW,238,8.0,14.0,67,0.00,,,0.00,weatherlink.com 1.10,2013-06-03 19:18:00,
2013-06-03 14:33:00,85.3,73.0,29.87,SW,227,7.0,12.0,66,0.00,,,0.00,weatherlink.com 1.10,2013-06-03 19:33:00,
2013-06-03 14:48:00,85.7,73.0,29.86,West,262,9.0,11.0,65,0.00,,,0.00,weatherlink.com 1.10,2013-06-03 19:48:00,
2013-06-03 15:03:00,86.1,73.0,29.86,SSW,212,12.0,15.0,66,0.00,,,0.00,weatherlink.com 1.10,2013-06-03 20:03:00,
2013-06-03 15:18:00,85.1,73.0,29.86,SW,218,7.0,12.0,67,0.00,,,0.00,weatherlink.com 1.10,2013-06-03 20:18:00,
2013-06-03 15:33:00,85.3,73.0,29.85,WSW,249,7.0,13.0,67,0.00,,,0.00,weatherlink.com 1.10,2013-06-03 20:33:00,
2013-06-03 15:48:00,85.1,73.0,29.84,WSW,246,6.0,12.0,67,0.00,,,0.00,weatherlink.com 1.10,2013-06-03 20:48:00,
2013-06-03 16:03:00,84.8,73.0,29.84,SW,222,6.0,12.0,67,0.00,,,0.00,weatherlink.com 1.10,2013-06-03 21:03:00,
2013-06-03 16:18:00,85.3,74.0,29.84,WSW,249,7.0,12.0,68,0.00,,,0.00,weatherlink.com 1.10,2013-06-03 21:18:00,
2013-06-03 16:33:00,84.9,72.0,29.84,SW,232,9.0,13.0,66,0.00,,,0.00,weatherlink.com 1.10,2013-06-03 21:33:00,
2013-06-03 16:48:00,84.2,72.0,29.84,SSW,212,9.0,12.0,67,0.00,,,0.00,weatherlink.com 1.10,2013-06-03 21:48:00,
2013-06-03 17:03:00,84.4,72.0,29.83,WSW,255,6.0,12.0,67,0.00,,,0.00,weatherlink.com 1.10,2013-06-03 22:03:00,
2013-06-03 17:18:00,84.1,73.0,29.83,WSW,250,6.0,14.0,69,0.00,,,0.00,weatherlink.com 1.10,2013-06-03 22:18:00,
2013-06-03 17:34:00,83.9,72.0,29.82,SW,229,11.0,13.0,67,0.00,,,0.00,weatherlink.com 1.10,2013-06-03 22:34:00,
2013-06-03 17:49:00,84.1,72.0,29.82,WSW,239,6.0,13.0,67,0.00,,,0.00,weatherlink.com 1.10,2013-06-03 22:49:00,
2013-06-03 18:04:00,83.2,72.0,29.81,WSW,239,7.0,13.0,69,0.00,,,0.00,weatherlink.com 1.10,2013-06-03 23:04:00,
2013-06-03 18:19:00,83.4,72.0,29.81,West,281,4.0,12.0,68,0.00,,,0.00,weatherlink.com 1.10,2013-06-03 23:19:00,
2013-06-03 18:34:00,83.0,72.0,29.82,WSW,252,8.0,12.0,69,0.00,,,0.00,weatherlink.com 1.10,2013-06-03 23:34:00,
2013-06-03 18:49:00,82.9,72.0,29.82,West,281,4.0,10.0,69,0.00,,,0.00,weatherlink.com 1.10,2013-06-03 23:49:00,
2013-06-03 19:19:00,82.1,73.0,29.82,North,7,6.0,12.0,73,0.00,,,0.00,weatherlink.com 1.10,2013-06-04 00:19:00,
2013-06-03 19:34:00,81.5,73.0,29.82,SW,233,8.0,12.0,74,0.00,,,0.00,weatherlink.com 1.10,2013-06-04 00:34:00,
2013-06-03 19:49:00,81.1,73.0,29.82,SW,217,6.0,10.0,75,0.00,,,0.00,weatherlink.com 1.10,2013-06-04 00:49:00,
2013-06-03 20:04:00,80.5,72.0,29.82,SW,222,6.0,12.0,75,0.00,,,0.00,weatherlink.com 1.10,2013-06-04 01:04:00,
2013-06-03 20:19:00,79.9,71.0,29.83,SW,216,9.0,10.0,75,0.00,,,0.00,weatherlink.com 1.10,2013-06-04 01:19:00,
2013-06-03 20:34:00,79.5,72.0,29.83,WSW,250,6.0,13.0,77,0.00,,,0.00,weatherlink.com 1.10,2013-06-04 01:34:00,
2013-06-03 20:49:00,79.4,72.0,29.83,SSW,197,7.0,12.0,78,0.00,,,0.00,weatherlink.com 1.10,2013-06-04 01:49:00,
2013-06-03 21:04:00,79.2,72.0,29.83,NW,311,4.0,11.0,79,0.00,,,0.00,weatherlink.com 1.10,2013-06-04 02:04:00,
2013-06-03 21:19:00,79.0,72.0,29.84,WSW,237,2.0,8.0,78,0.00,,,0.00,weatherlink.com 1.10,2013-06-04 02:19:00,
2013-06-03 21:34:00,78.9,72.0,29.84,SW,226,6.0,8.0,79,0.00,,,0.00,weatherlink.com 1.10,2013-06-04 02:34:00,
2013-06-03 21:49:00,79.0,72.0,29.84,WNW,292,4.0,7.0,80,0.00,,,0.00,weatherlink.com 1.10,2013-06-04 02:49:00,
2013-06-03 22:04:00,79.1,72.0,29.84,WSW,254,9.0,10.0,79,0.00,,,0.00,weatherlink.com 1.10,2013-06-04 03:04:00,
2013-06-03 22:19:00,79.0,72.0,29.85,WSW,255,5.0,9.0,79,0.00,,,0.00,weatherlink.com 1.10,2013-06-04 03:19:00,
2013-06-03 22:34:00,78.8,72.0,29.85,WSW,248,7.0,9.0,80,0.00,,,0.00,weatherlink.com 1.10,2013-06-04 03:34:00,
2013-06-03 22:49:00,78.8,72.0,29.85,WSW,241,9.0,12.0,79,0.00,,,0.00,weatherlink.com 1.10,2013-06-04 03:49:00,
2013-06-03 23:04:00,78.8,71.0,29.85,West,271,4.0,11.0,78,0.00,,,0.00,weatherlink.com 1.10,2013-06-04 04:04:00,
2013-06-03 23:19:00,78.8,72.0,29.86,SW,232,5.0,9.0,79,0.00,,,0.00,weatherlink.com 1.10,2013-06-04 04:19:00,
2013-06-03 23:34:00,78.6,72.0,29.86,WSW,249,5.0,11.0,80,0.00,,,0.00,weatherlink.com 1.10,2013-06-04 04:34:00,
2013-06-03 23:49:00,78.5,72.0,29.86,SW,233,6.0,8.0,81,0.00,,,0.00,weatherlink.com 1.10,2013-06-04 04:49:00,